When you browse on this site, cookies collect data to enhance your experience and personalize the content and advertising you see.
Visit our Privacy Policy to learn more. By continuing to use the site, you agree to this use of cookies and data.
  • In Czech Republic
  • List of Countries
  • For 7 days
  • Water Temperature
  • Satellite Maps
  • Weather Map
  • Weather Widgets
  • user-avatar
    Login

    Hourly Weather Brisbane

    Today, 24 January, Thursday

    Time Temperature Precipitation Wind Pressure Humidity
    00:00 +26°C° 0.2 mm 2 mps 757 mmHg 83%
    01:00 +25°C° 0.2 mm 2 mps 757 mmHg 84%
    02:00 +25°C° 0.4 mm 2 mps 757 mmHg 85%
    03:00 +25°C° 0.4 mm 1 mps 757 mmHg 86%
    04:00 +25°C° 0 mm 1 mps 758 mmHg 86%
    05:00 +25°C° 0.2 mm 1 mps 758 mmHg 83%
    06:00 +26°C° 0.2 mm 1 mps 758 mmHg 79%
    07:00 +27°C° 0.2 mm 1 mps 759 mmHg 76%
    08:00 +29°C° 0 mm 1 mps 759 mmHg 66%
    09:00 +32°C° 0 mm 1 mps 759 mmHg 57%
    10:00 +34°C° 0 mm 1 mps 759 mmHg 48%
    11:00 +36°C° 0 mm 2 mps 758 mmHg 47%
    12:00 +36°C° 0 mm 3 mps 758 mmHg 47%
    13:00 +36°C° 0 mm 4 mps 758 mmHg 46%
    14:00 +35°C° 0 mm 4 mps 757 mmHg 48%
    15:00 +35°C° 0 mm 4 mps 757 mmHg 50%
    16:00 +34°C° 0 mm 4 mps 757 mmHg 52%
    17:00 +32°C° 0 mm 4 mps 757 mmHg 58%
    18:00 +30°C° 0 mm 3 mps 758 mmHg 63%
    19:00 +28°C° 0 mm 3 mps 758 mmHg 69%
    20:00 +28°C° 0 mm 3 mps 759 mmHg 73%
    21:00 +27°C° 0 mm 2 mps 759 mmHg 76%
    22:00 +27°C° 0 mm 2 mps 760 mmHg 79%
    23:00 +27°C° 0.1 mm 2 mps 760 mmHg 80%

    Tomorrow, 25 January, Friday

    Time Temperature Precipitation Wind Pressure Humidity
    00:00 +26°C° 0.1 mm 2 mps 760 mmHg 81%
    01:00 +26°C° 0.1 mm 2 mps 759 mmHg 82%
    02:00 +26°C° 0.2 mm 1 mps 759 mmHg 84%
    03:00 +26°C° 0.2 mm 1 mps 759 mmHg 86%
    04:00 +23°C° 0.2 mm 0 mps 759 mmHg 88%
    05:00 +24°C° 0 mm 0 mps 759 mmHg 85%
    06:00 +25°C° 0 mm 0 mps 760 mmHg 81%
    07:00 +26°C° 0 mm 0 mps 760 mmHg 78%
    08:00 +29°C° 0.1 mm 1 mps 760 mmHg 70%
    09:00 +30°C° 0.1 mm 2 mps 760 mmHg 63%
    10:00 +33°C° 0.1 mm 3 mps 760 mmHg 55%
    11:00 +33°C° 0 mm 3 mps 759 mmHg 53%
    12:00 +34°C° 0 mm 4 mps 759 mmHg 51%
    13:00 +35°C° 0 mm 4 mps 759 mmHg 49%
    14:00 +34°C° 0 mm 4 mps 758 mmHg 50%
    15:00 +34°C° 0 mm 4 mps 758 mmHg 52%
    16:00 +33°C° 0 mm 4 mps 757 mmHg 54%
    17:00 +32°C° 0 mm 4 mps 758 mmHg 60%
    18:00 +29°C° 0 mm 4 mps 758 mmHg 67%
    19:00 +28°C° 0 mm 3 mps 758 mmHg 74%
    20:00 +27°C° 0 mm 3 mps 759 mmHg 78%
    21:00 +27°C° 0 mm 3 mps 760 mmHg 81%
    22:00 +26°C° 0 mm 3 mps 760 mmHg 85%
    23:00 +26°C° 0 mm 2 mps 760 mmHg 86%

    Day after tomorrow, 26 January, Saturday

    Time Temperature Precipitation Wind Pressure Humidity
    00:00 +25°C° 0 mm 2 mps 760 mmHg 87%
    01:00 +25°C° 0 mm 2 mps 759 mmHg 88%
    02:00 +25°C° 0 mm 1 mps 759 mmHg 89%
    03:00 +25°C° 0 mm 1 mps 759 mmHg 90%
    04:00 +24°C° 0 mm 1 mps 758 mmHg 90%
    05:00 +25°C° 0 mm 1 mps 758 mmHg 86%
    06:00 +26°C° 0 mm 1 mps 759 mmHg 82%
    07:00 +27°C° 0 mm 1 mps 759 mmHg 78%
    08:00 +28°C° 0 mm 2 mps 759 mmHg 72%
    09:00 +29°C° 0 mm 3 mps 759 mmHg 66%
    10:00 +30°C° 0 mm 3 mps 759 mmHg 60%
    11:00 +31°C° 0 mm 3 mps 759 mmHg 57%
    12:00 +32°C° 0 mm 4 mps 758 mmHg 54%
    13:00 +33°C° 0 mm 4 mps 758 mmHg 51%
    14:00 +33°C° 0 mm 4 mps 758 mmHg 52%
    15:00 +33°C° 0 mm 4 mps 757 mmHg 53%
    16:00 +32°C° 0 mm 5 mps 757 mmHg 54%
    17:00 +30°C° 0 mm 4 mps 757 mmHg 60%
    18:00 +28°C° 0 mm 4 mps 757 mmHg 66%
    19:00 +27°C° 0 mm 3 mps 758 mmHg 72%
    20:00 +26°C° 0 mm 3 mps 758 mmHg 75%
    21:00 +26°C° 0 mm 3 mps 759 mmHg 78%
    22:00 +25°C° 0 mm 3 mps 759 mmHg 81%
    23:00 +25°C° 0 mm 2 mps 759 mmHg 83%

    27 January, Sunday

    Time Temperature Precipitation Wind Pressure Humidity
    00:00 +25°C° 0 mm 2 mps 758 mmHg 84%
    01:00 +25°C° 0 mm 2 mps 758 mmHg 85%
    02:00 +24°C° 0 mm 2 mps 758 mmHg 86%
    03:00 +24°C° 0 mm 2 mps 758 mmHg 86%
    04:00 +24°C° 0 mm 2 mps 758 mmHg 86%
    05:00 +25°C° 0 mm 2 mps 758 mmHg 83%
    06:00 +26°C° 0 mm 2 mps 758 mmHg 79%
    07:00 +27°C° 0 mm 2 mps 759 mmHg 75%
    08:00 +28°C° 0 mm 3 mps 759 mmHg 69%
    09:00 +29°C° 0 mm 3 mps 759 mmHg 63%
    10:00 +30°C° 0 mm 3 mps 759 mmHg 57%
    11:00 +30°C° 0 mm 3 mps 759 mmHg 56%
    12:00 +31°C° 0 mm 3 mps 758 mmHg 54%
    13:00 +31°C° 0 mm 3 mps 758 mmHg 53%
    14:00 +32°C° 0 mm 4 mps 758 mmHg 54%
    15:00 +30°C° 0 mm 4 mps 757 mmHg 56%
    16:00 +30°C° 0 mm 4 mps 757 mmHg 58%
    17:00 +29°C° 0 mm 3 mps 758 mmHg 62%
    18:00 +28°C° 0 mm 3 mps 758 mmHg 66%
    19:00 +27°C° 0 mm 3 mps 759 mmHg 71%
    20:00 +27°C° 0 mm 3 mps 759 mmHg 73%
    21:00 +26°C° 0 mm 3 mps 760 mmHg 76%
    22:00 +26°C° 0 mm 2 mps 760 mmHg 78%
    23:00 +25°C° 0 mm 2 mps 760 mmHg 81%

    28 January, Monday

    Time Temperature Precipitation Wind Pressure Humidity
    00:00 +25°C° 0 mm 2 mps 759 mmHg 83%
    01:00 +25°C° 0 mm 1 mps 759 mmHg 85%
    02:00 +24°C° 0 mm 1 mps 759 mmHg 86%
    03:00 +24°C° 0 mm 1 mps 759 mmHg 88%
    04:00 +24°C° 0 mm 1 mps 759 mmHg 89%
    05:00 +25°C° 0.1 mm 1 mps 759 mmHg 85%
    06:00 +26°C° 0.1 mm 1 mps 760 mmHg 81%
    07:00 +27°C° 0.1 mm 1 mps 760 mmHg 77%
    08:00 +28°C° 0.1 mm 2 mps 760 mmHg 71%
    09:00 +30°C° 0.1 mm 3 mps 760 mmHg 64%
    10:00 +31°C° 0.1 mm 3 mps 760 mmHg 57%
    11:00 +33°C° 0 mm 4 mps 760 mmHg 53%
    12:00 +34°C° 0 mm 4 mps 759 mmHg 48%
    13:00 +35°C° 0 mm 4 mps 759 mmHg 44%
    14:00 +34°C° 0 mm 4 mps 758 mmHg 45%
    15:00 +34°C° 0 mm 4 mps 758 mmHg 46%
    16:00 +33°C° 0 mm 4 mps 758 mmHg 47%
    17:00 +32°C° 0 mm 4 mps 758 mmHg 56%
    18:00 +29°C° 0 mm 3 mps 759 mmHg 64%
    19:00 +27°C° 0 mm 3 mps 759 mmHg 72%
    20:00 +27°C° 0 mm 3 mps 760 mmHg 77%
    21:00 +26°C° 0 mm 3 mps 760 mmHg 82%
    22:00 +26°C° 0 mm 3 mps 761 mmHg 87%
    23:00 +26°C° 0.1 mm 2 mps 761 mmHg 87%

    29 January, Tuesday

    Time Temperature Precipitation Wind Pressure Humidity
    00:00 +26°C° 0.1 mm 2 mps 760 mmHg 87%
    01:00 +26°C° 0.1 mm 2 mps 760 mmHg 87%
    02:00 +26°C° 0.1 mm 2 mps 760 mmHg 87%
    03:00 +25°C° 0.1 mm 2 mps 759 mmHg 86%
    04:00 +25°C° 0.1 mm 2 mps 759 mmHg 86%
    05:00 +26°C° 0 mm 2 mps 760 mmHg 82%
    06:00 +26°C° 0 mm 2 mps 760 mmHg 78%
    07:00 +27°C° 0 mm 2 mps 761 mmHg 73%
    08:00 +28°C° 0 mm 3 mps 761 mmHg 66%
    09:00 +29°C° 0 mm 3 mps 760 mmHg 60%
    10:00 +30°C° 0 mm 3 mps 760 mmHg 53%
    11:00 +31°C° 0 mm 3 mps 760 mmHg 49%
    12:00 +33°C° 0 mm 4 mps 759 mmHg 45%
    13:00 +34°C° 0 mm 4 mps 759 mmHg 41%
    14:00 +33°C° 0 mm 4 mps 759 mmHg 43%
    15:00 +33°C° 0 mm 4 mps 758 mmHg 45%
    16:00 +32°C° 0 mm 4 mps 758 mmHg 48%
    17:00 +30°C° 0 mm 4 mps 759 mmHg 54%
    18:00 +28°C° 0 mm 3 mps 759 mmHg 61%
    19:00 +27°C° 0 mm 3 mps 759 mmHg 68%
    20:00 +27°C° 0 mm 3 mps 760 mmHg 73%
    21:00 +26°C° 0 mm 3 mps 760 mmHg 78%
    22:00 +26°C° 0 mm 3 mps 760 mmHg 83%
    23:00 +26°C° 0.1 mm 2 mps 760 mmHg 84%
    Show more